Location: Melizzano
(41.1500°N, 14.5000°E)
Time: 20:46:53
(UTC+00:00)

SeaSat 1 - Pass Details

Date: 11 May 2021
Orbit: 745 x 746 km, 108.0° (Epoch: 21 June)

Event Time Altitude Azimuth Distance (km) Brightness Sun altitude
Rises 23:02:45 0° 27° (NNE) 3,198 6.6 -30.7°
Reaches altitude 10° 23:05:01 10° 29° (NNE) 2,270 5.7 -30.7°
Enters shadow 23:08:32 47° 39° (NE) 990 3.3 -30.7°
